Regional Weather Roundup
Issued by NWS

Home | Current Version | Previous Version | Text Only | Print | Product List | Glossary On
Versions: 1 2 3 4 5 6 7 8 9 10 11 12 13 14 15 16 17 18 19 20 21 22 23 24 25 26 27 28 29 30 31 32 33 34 35 36 37 38 39 40 41 42 43 44 45 46 47 48 49 50
000
ASCA44 KEWX 230520
RWRMX

LATIN AMERICA AND CARIBBEAN REGIONAL WEATHER ROUNDUP
NATIONAL WEATHER SERVICE AUSTIN/SAN ANTONIO TX
1200 AM CDT TUE MAY 23 2017

NOTE: "FAIR" INDICATED FEW OR NO CLOUDS BELOW 12,000 FEET WITH NO
SIGNIFICANT WEATHER AND/OR OBSTRUCTIONS TO VISIBILITY.

BAJA CALIFORNIA

CITY           SKY/WX    TMP DP  RH WIND       PRES   REMARKS
LA PAZ         CLEAR     73  48  40 S9        29.90R
MEXICALI       CLEAR     86  37  17 S6        29.78R
S.J. DEL CABO  PTCLDY    73  48  40 CALM      29.88S
TIJUANA        MOCLDY    59  54  82 CALM      29.99S

NORTHWESTERN MEXICO

CITY           SKY/WX    TMP DP  RH WIND       PRES   REMARKS
CULIACAN       MOCLDY    75  66  73 CALM      29.86S
HERMOSILLO     CLEAR     84  39  20 NW3       29.85R
LOS MOCHIS       N/A    N/A N/A N/A MISG        N/A

NORTHEASTERN MEXICO

CITY           SKY/WX    TMP DP  RH WIND       PRES   REMARKS
MONCLOVA         N/A    N/A N/A N/A MISG        N/A
MONTERREY      CLOUDY    75  68  78 W5        29.89S
REYNOSA          N/A    N/A N/A N/A MISG        N/A
SALTILLO       MOCLDY    64  57  77 N7        30.11R FOG
CD. VICTORIA     N/A    N/A N/A N/A MISG        N/A

WESTERN MEXICO

CITY           SKY/WX    TMP DP  RH WIND       PRES   REMARKS
AGUASCALIENTES CLEAR     72  16  12 S3        30.17R
COLIMA           N/A    N/A N/A N/A MISG        N/A
DEL BAJIO      CLEAR     75  21  13 W9        30.20R
GUADALAJARA    PTCLDY    75  41  29 W13       30.15R
MAZATLAN       PTCLDY    70  68  94 CALM      29.87R
P. VALLARTA    CLEAR     75  75 100 CALM      29.88R
URUAPAN          N/A    N/A N/A N/A MISG        N/A
ZACATECAS        N/A    N/A N/A N/A MISG        N/A

CENTRAL MEXICO

CITY           SKY/WX    TMP DP  RH WIND       PRES   REMARKS
CUERNAVACA       N/A    N/A N/A N/A MISG        N/A
MEXICO CITY    MOCLDY    70  48  46 NW9       30.31R
MORELIA        CLEAR     73  57  56 W12       30.18R
POZA RICA        N/A    N/A N/A N/A MISG        N/A
QUERETARO      CLEAR     73  57  56 E9        30.23R
S. LUIS POTOSI CLEAR     70  55  60 CALM      30.15R
TAMPICO          N/A    N/A N/A N/A MISG        N/A
TOLUCA         MOCLDY    59  54  82 CALM      30.39F

SOUTHERN MEXICO

CITY           SKY/WX    TMP DP  RH WIND       PRES   REMARKS
ACAPULCO       MOCLDY    84  79  84 CALM      29.88R HX  96
B. DE HUATULCO PTCLDY   N/A N/A N/A CALM      29.99R
P. ESCONDIDO     N/A    N/A N/A N/A MISG        N/A
VERACRUZ         N/A    N/A N/A N/A MISG        N/A

YUCATAN PENINSULA

CITY           SKY/WX    TMP DP  RH WIND       PRES   REMARKS
CAMPECHE         N/A    N/A N/A N/A MISG        N/A
CANCUN         MOCLDY    81  75  83 SE16      29.95F
CHETUMAL       PTCLDY    82  75  78 SE10      29.92R
CD. DEL CARMEN   N/A    N/A N/A N/A MISG        N/A
COZUMEL        CLEAR     79  73  83 SE8       29.93F
MERIDA         CLEAR     84  70  61 SE23      29.89R
MINATITLAN       N/A    N/A N/A N/A MISG        N/A
TAPACHULA      MOCLDY    79  77  94 CALM      29.89R
TUX. GUTIERREZ CLOUDY    79  70  73 SE5       29.93R
VILLAHERMOSA   PTCLDY    82  75  78 NE7       29.83R

CENTRAL AMERICA

CITY           SKY/WX    TMP DP  RH WIND       PRES   REMARKS
MANAGUA        PTCLDY    75  73  94 SE9       29.92S

CARIBBEAN

CITY           SKY/WX    TMP DP  RH WIND       PRES   REMARKS
CURACAO        PTCLDY    81  73  78 E10       29.92F
KINGSTON       PTCLDY    82  73  74 N5        29.94F
NASSAU         PTCLDY    75  63  64 CALM      30.05F
SAN JUAN       MOCLDY    81  75  83 E8        30.03F
SANTO DOMINGO  PTCLDY    77  73  88 NE5       30.00S
ST. CROIX      LGT RAIN  79  75  89 E7        30.02
ST. MAARTEN    MOCLDY    82  77  83 E8        30.03S HX  91
ST. THOMAS     CLOUDY    82  75  78 E8        30.02F

$$





USA.gov is the U.S. government's official web portal to all federal, state and local government web resources and services.